Satellite: NO-44
Catalog number: 26931
Epoch time:      12025.77991182
Element set:    0956
Inclination:      067.0536 deg
RA of node:       129.9331 deg
Eccentricity:    0.0005881
Arg of perigee:   283.2579 deg
Mean anomaly:     076.7868 deg
Mean motion:   14.29755050 rev/day
Decay rate:       2.81e-06 rev/day^2
Epoch rev:           53874
Checksum:              344

Satellite: SO-50
Catalog number: 27607
Epoch time:      12025.50880642
Element set:    0672
Inclination:      064.5582 deg
RA of node:       011.9003 deg
Eccentricity:    0.0085021
Arg of perigee:   276.5362 deg
Mean anomaly:     082.6057 deg
Mean motion:   14.72183926 rev/day
Decay rate:      1.192e-05 rev/day^2
Epoch rev:           48881
Checksum:              298

Satellite: CO-55
Catalog number: 27844
Epoch time:      12026.61664021
Element set:     296
Inclination:      098.7046 deg
RA of node:       037.0654 deg
Eccentricity:    0.0009090
Arg of perigee:   276.5229 deg
Mean anomaly:     083.4927 deg
Mean motion:   14.20952440 rev/day
Decay rate:       2.84e-06 rev/day^2
Epoch rev:           44464
Checksum:              309

Satellite: CO-57
Catalog number: 27848
Epoch time:      12025.53943337
Element set:     244
Inclination:      098.7126 deg
RA of node:       035.2752 deg
Eccentricity:    0.0008946
Arg of perigee:   284.8893 deg
Mean anomaly:     075.1292 deg
Mean motion:   14.20713012 rev/day
Decay rate:       2.40e-06 rev/day^2
Epoch rev:           44443
Checksum:              306

Satellite: AO-51
Catalog number: 28375
Epoch time:      12026.86594149
Element set:     178
Inclination:      098.1265 deg
RA of node:       358.9168 deg
Eccentricity:    0.0084225
Arg of perigee:   111.5430 deg
Mean anomaly:     249.4759 deg
Mean motion:   14.40886980 rev/day
Decay rate:       1.43e-06 rev/day^2
Epoch rev:           39827
Checksum:              346

Satellite: CP3
Catalog number: 31129
Epoch time:      12026.60000097
Element set:      78
Inclination:      097.8870 deg
RA of node:       042.7692 deg
Eccentricity:    0.0101119
Arg of perigee:   206.0231 deg
Mean anomaly:     153.5837 deg
Mean motion:   14.52868244 rev/day
Decay rate:       8.39e-06 rev/day^2
Epoch rev:           25327
Checksum:              287

Satellite: CO-65
Catalog number: 32785
Epoch time:      12025.64542421
Element set:    0214
Inclination:      097.8204 deg
RA of node:       089.9948 deg
Eccentricity:    0.0014937
Arg of perigee:   166.4592 deg
Mean anomaly:     193.7004 deg
Mean motion:   14.82640500 rev/day
Decay rate:      1.432e-05 rev/day^2
Epoch rev:           20249
Checksum:              305

Satellite: PRISM
Catalog number: 33493
Epoch time:      12026.80803514
Element set:     366
Inclination:      098.1487 deg
RA of node:       164.2492 deg
Eccentricity:    0.0019858
Arg of perigee:   040.9534 deg
Mean anomaly:     319.3203 deg
Mean motion:   14.83111153 rev/day
Decay rate:      3.065e-05 rev/day^2
Epoch rev:           16264
Checksum:              288

Satellite: SOHLA-1
Catalog number: 33496
Epoch time:      12025.81282034
Element set:    0640
Inclination:      098.0923 deg
RA of node:       138.6300 deg
Eccentricity:    0.0007261
Arg of perigee:   130.2439 deg
Mean anomaly:     229.9403 deg
Mean motion:   14.69851505 rev/day
Decay rate:       5.62e-06 rev/day^2
Epoch rev:           16118
Checksum:              277

Satellite: TISAT-1
Catalog number: 36799
Epoch time:      12026.85057843
Element set:     640
Inclination:      098.0777 deg
RA of node:       102.1212 deg
Eccentricity:    0.0013862
Arg of perigee:   274.2492 deg
Mean anomaly:     085.7165 deg
Mean motion:   14.81458422 rev/day
Decay rate:      2.089e-05 rev/day^2
Epoch rev:            8341
Checksum:              308

Satellite: STUDSAT
Catalog number: 36801
Epoch time:      12026.22490391
Element set:     327
Inclination:      098.0829 deg
RA of node:       101.6801 deg
Eccentricity:    0.0012391
Arg of perigee:   262.7350 deg
Mean anomaly:     097.2593 deg
Mean motion:   14.82944357 rev/day
Decay rate:      5.507e-05 rev/day^2
Epoch rev:            8332
Checksum:              288

Satellite: FO-69
Catalog number: 37227
Epoch time:      12018.13838078
Element set:    0079
Inclination:      071.9715 deg
RA of node:       285.2240 deg
Eccentricity:    0.0018772
Arg of perigee:   243.3066 deg
Mean anomaly:     116.6174 deg
Mean motion:   14.76896760 rev/day
Decay rate:       4.22e-06 rev/day^2
Epoch rev:           01379
Checksum:              322

Satellite: FO-70
Catalog number: 37380
Epoch time:      12018.38985263
Element set:    0083
Inclination:      071.9747 deg
RA of node:       285.0401 deg
Eccentricity:    0.0019270
Arg of perigee:   240.0754 deg
Mean anomaly:     119.8494 deg
Mean motion:   14.76656006 rev/day
Decay rate:       4.83e-06 rev/day^2
Epoch rev:           01372
Checksum:              306

/EX
SB KEPS @ AMSAT  $ORB12027.W
Orbital Elements  12027.WEATHER

HR AMSAT ORBITAL ELEMENTS FOR WEATHER SATELLITES
FROM WA5QGD FORT WORTH,TX January 27, 2012
Send SUBSCRIBE KEPS/UNSUBSCRIBE KEPS to majordomo@amsat.org only
BID: ORB12027.W
TO ALL RADIO AMATEURS BT

